Group_ship,Cruise,JD_GMT,Date_DDMMYYYY,TIME_HH:MM:SS,Lat_dec_degree,Long_dec_degree,xCO2eq_ppm,xCO2a_ppm,Pres_Equi_hPa,Pres_sealevel_hPa,EqTemp_C,SST(TSG)_C,Sal(TSG)_Permil,Water_flow_l/min,Gasflow_IR_ml/min,Temp_IR_C,Pres_IR_hPa,Ship_heading_true_degree,Ship_speed_knot,Wind_dir_rel_degree,Wind_speed_rel_m/s,fCO2W@SST_uatm,Qcflag_water,fCO2a_uatm,Qcflag_air,dfCO2_uatm,Fluoro_ug/l,Wind_speed_true_m/s,Wind_dir_true_degree,Air_temp_C,Oxygen
AOML_Explorer,Ex0549E,346.183,12122005,4:24:13,25.984,-78.092,370.37,-9,1013.6,1011.1,25.49,25.68,36.45,1.59,79.53,31.11,1013.6,114.3,22.5,355,7.72,360.23,2,-9,9,-9,0.16,3.96,304.76,22.56,228
AOML_Explorer,Ex0549E,346.185,12122005,4:26:46,25.978,-78.075,370.45,-9,1013.47,1011.02,25.49,25.74,36.43,1.6,79.6,31.11,1013.47,114.5,22.5,352,8.24,361.01,2,-9,9,-9,0.13,3.65,314.15,22.55,228.23
AOML_Explorer,Ex0549E,346.187,12122005,4:29:19,25.971,-78.059,370.63,-9,1013.42,1010.94,25.5,25.75,36.46,1.58,79.56,31.11,1013.42,110.7,22.4,350,8.24,361.14,2,-9,9,-9,0.12,3.79,315.18,22.6,228.47
AOML_Explorer,Ex0549E,346.189,12122005,4:31:52,25.966,-78.043,370.76,-9,1013.52,1010.96,25.56,25.76,36.44,1.58,79.91,31.1,1013.52,110.8,22.4,343,7.72,360.55,2,-9,9,-9,0.14,4.78,320.05,22.67,228.29
AOML_Explorer,Ex0549E,346.191,12122005,4:34:25,25.96,-78.026,371.23,-9,1013.57,1010.96,25.56,25.75,36.43,1.59,79.62,31.1,1013.57,110.4,22.5,339,7.21,360.89,2,-9,9,-9,0.13,5.56,318.96,22.68,228.26
AOML_Explorer,Ex0549E,346.192,12122005,4:36:58,25.955,-78.01,371.06,-9,1013.67,1011.13,25.56,25.74,36.42,1.58,80.37,31.09,1013.67,110.9,22.5,331,6.69,360.73,2,-9,9,-9,0.13,6.67,320.85,22.69,228.16
AOML_Explorer,Ex0549E,346.194,12122005,4:39:31,25.949,-77.994,370.8,-9,1013.75,1011.22,25.56,25.74,36.41,1.58,79.8,31.09,1013.75,110.8,22.5,338,7.72,360.53,2,-9,9,-9,0.13,5.38,324.69,22.77,228.24
AOML_Explorer,Ex0549E,346.196,12122005,4:42:04,25.944,-77.977,370.5,-9,1013.77,1011.14,25.53,25.74,36.41,1.65,80.11,31.09,1013.77,106.9,22.4,312,7.21,360.58,2,-9,9,-9,0.13,8.72,325.55,22.84,228.21
AOML_Explorer,Ex0549E,346.198,12122005,4:44:37,25.939,-77.96,370.21,-9,1013.86,1011.26,25.54,25.73,36.41,1.64,80.3,31.09,1013.86,107.9,22.4,314,7.72,360.2,2,-9,9,-9,0.13,8.45,329.7,22.83,228.33
AOML_Explorer,Ex0549E,346.199,12122005,4:47:10,25.934,-77.943,369.96,-9,1013.66,1010.98,25.55,25.74,36.41,1.63,79.85,31.08,1013.66,108,22.5,302,7.72,359.74,2,-9,9,-9,0.13,10.09,329.02,22.88,228.55
AOML_Explorer,Ex0549E,346.201,12122005,4:49:43,25.929,-77.927,369.95,-9,1013.41,1010.96,25.55,25.74,36.42,1.62,79.77,31.08,1013.41,108.1,22.4,310,8.75,359.66,2,-9,9,-9,0.13,9.11,336.54,22.79,228.45
AOML_Explorer,Ex0549E,346.203,12122005,4:52:16,25.924,-77.91,369.97,-9,1013.35,1010.61,25.55,25.74,36.42,1.64,79.78,31.08,1013.35,108.4,22.5,304,10.29,359.64,2,-9,9,-9,0.13,10.61,343.48,22.93,228.52
AOML_Explorer,Ex0549E,346.205,12122005,4:54:49,25.919,-77.893,369.92,-9,1013.49,1010.88,25.55,25.74,36.42,1.61,79.38,31.08,1013.49,108.5,22.6,297,8.75,359.72,2,-9,9,-9,0.12,11.15,333.61,22.94,228.68
AOML_Explorer,Ex0549E,346.207,12122005,4:57:22,25.914,-77.877,369.97,-9,1013.55,1010.8,25.55,25.74,36.42,1.65,80.11,31.07,1013.55,108.7,22.7,293,9.26,359.73,2,-9,9,-9,0.13,11.99,334.75,22.95,228.71
AOML_Explorer,Ex0549E,346.208,12122005,4:59:55,25.909,-77.86,369.92,-9,1013.18,1010.75,25.55,25.74,36.42,1.64,80.39,31.07,1013.18,108.1,22.8,304,10.29,359.55,2,-9,9,-9,0.13,10.74,342.4,22.89,228.84
AOML_Explorer,Ex0549E,346.223,12122005,5:21:40,25.868,-77.715,370.04,-9,1012.69,1010.08,25.5,25.66,36.47,1.65,80.24,31.11,1012.69,106.6,22.5,303,11.84,359.19,2,-9,9,-9,0.19,11.61,347.99,22.98,227.26
AOML_Explorer,Ex0549E,346.225,12122005,5:24:13,25.864,-77.698,370.77,-9,1012.55,1010.13,25.47,25.65,36.47,1.62,79.34,31.11,1012.55,106.4,22.5,296,10.29,360.07,2,-9,9,-9,0.15,12.02,338.07,23,227.17
AOML_Explorer,Ex0549E,346.227,12122005,5:26:46,25.859,-77.681,371.62,-9,1012.33,1009.89,25.48,25.65,36.47,1.61,79.55,31.11,1012.33,106.6,22.5,294,10.81,360.66,2,-9,9,-9,0.15,12.63,339.3,23.04,227.79
AOML_Explorer,Ex0549E,346.229,12122005,5:29:19,25.854,-77.665,371.78,-9,1012.33,1009.7,25.46,25.64,36.48,1.62,79.89,31.11,1012.33,106.7,22.5,299,13.38,360.86,2,-9,9,-9,0.14,13.29,351.37,23.02,228.26
AOML_Explorer,Ex0549E,346.23,12122005,5:31:52,25.85,-77.648,371.19,-9,1012.35,1009.78,25.46,25.67,36.48,1.64,79.01,31.11,1012.35,107.1,22.4,292,12.35,360.82,2,-9,9,-9,0.11,13.86,344.44,23.03,228.47
AOML_Explorer,Ex0549E,346.232,12122005,5:34:25,25.845,-77.631,370.6,-9,1012.47,1009.89,25.46,25.69,36.54,1.62,79.87,31.11,1012.47,107.1,22.5,293,12.35,360.64,2,-9,9,-9,0.11,13.73,344.77,23.07,228.74
AOML_Explorer,Ex0549E,346.234,12122005,5:36:58,25.841,-77.614,370.33,-9,1012.71,1010.23,25.49,25.67,36.63,1.63,79.99,31.1,1012.71,106.7,22.6,287,9.78,359.67,2,-9,9,-9,0.16,13.17,332.63,23.01,228.38
AOML_Explorer,Ex0549E,346.236,12122005,5:39:31,25.836,-77.597,369.93,-9,1012.87,1010.17,25.54,25.62,36.56,1.62,79.8,31.1,1012.87,107,22.7,281,10.29,357.96,2,-9,9,-9,0.17,14.44,331.88,23.06,228.25
AOML_Explorer,Ex0549E,346.238,12122005,5:42:04,25.832,-77.58,369.75,-9,1012.65,1010.2,25.46,25.61,36.54,1.61,80,31.1,1012.65,107.1,22.7,287,10.29,358.71,2,-9,9,-9,0.16,13.57,334.55,23.05,227.96
AOML_Explorer,Ex0549E,346.239,12122005,5:44:37,25.827,-77.563,369.53,-9,1012.4,1009.94,25.43,25.64,36.52,1.62,80.1,31.1,1012.4,107.7,22.7,288,11.84,359.14,2,-9,9,-9,0.13,14.44,340.32,23.03,228.05
AOML_Explorer,Ex0549E,346.241,12122005,5:47:10,25.822,-77.546,369.45,-9,1012.59,1010,25.43,25.7,36.54,1.63,79.68,31.1,1012.59,107.5,22.7,287,11.32,359.93,2,-9,9,-9,0.11,14.18,338.37,23.13,228.52
AOML_Explorer,Ex0549E,346.243,12122005,5:49:43,25.818,-77.529,369.38,-9,1012.79,1010.24,25.46,25.78,36.63,1.62,79.99,31.1,1012.79,106.6,22.6,288,10.29,360.55,2,-9,9,-9,0.16,13.29,334.82,23.02,228.82
AOML_Explorer,Ex0549E,346.245,12122005,5:52:16,25.813,-77.512,368.33,-9,1012.71,1010.18,25.55,25.79,36.65,1.62,80.26,31.1,1012.71,106.6,22.5,288,10.81,358.44,2,-9,9,-9,0.14,13.58,336.7,23.08,228.53
AOML_Explorer,Ex0549E,346.246,12122005,5:54:49,25.809,-77.495,366.61,-9,1012.55,1010.09,25.58,25.79,36.66,1.62,79.97,31.1,1012.55,105.9,22.5,292,10.29,356.3,2,-9,9,-9,0.13,12.63,335.99,23.1,228.61
AOML_Explorer,Ex0549E,346.248,12122005,5:57:22,25.804,-77.478,367.09,-9,1012.4,1010.02,25.59,25.7,36.63,1.62,79.68,31.1,1012.4,106.3,22.6,296,11.32,355.45,2,-9,9,-9,0.18,12.5,342.14,23.14,228.16
AOML_Explorer,Ex0549E,346.25,12122005,5:59:55,25.8,-77.461,368.2,-9,1012.49,1009.91,25.55,25.69,36.6,1.62,79.83,31.09,1012.49,106.4,22.8,292,10.81,356.93,2,-9,9,-9,0.17,12.99,337.93,23.13,227.66
AOML_Explorer,Ex0549E,346.265,12122005,6:21:40,25.768,-77.315,365.07,-9,1012.1,1009.17,25.61,25.84,36.66,1.59,79.11,31.15,1012.1,101.9,22.3,287,13.9,354.9,2,-9,9,-9,0.12,15.58,341.44,23.24,229.11
AOML_Explorer,Ex0549E,346.267,12122005,6:24:13,25.765,-77.298,365.5,-9,1012.17,1009.24,25.63,25.84,36.67,1.6,79.07,31.16,1012.17,101.6,22.3,283,11.84,355.03,2,-9,9,-9,0.11,14.8,333.3,23.23,228.99
AOML_Explorer,Ex0549E,346.269,12122005,6:26:46,25.761,-77.281,366.53,-9,1012.45,1009.29,25.62,25.8,36.69,1.62,79.9,31.16,1012.45,102,22.3,277,13.38,355.85,2,-9,9,-9,0.14,16.83,334.35,23.17,228.66
AOML_Explorer,Ex0549E,346.27,12122005,6:29:19,25.758,-77.264,367.15,-9,1012.62,1009.29,25.63,25.79,36.66,1.57,78.64,31.16,1012.62,101.9,22.1,274,14.41,356.28,2,-9,9,-9,0.13,18.07,334.75,22.92,228.75
AOML_Explorer,Ex0549E,346.272,12122005,6:31:52,25.755,-77.247,367.4,-9,1012.52,1009.63,25.6,25.78,36.66,1.59,79.38,31.16,1012.52,102.1,22.3,276,13.38,356.69,2,-9,9,-9,0.11,17.01,333.8,22.85,228.8
AOML_Explorer,Ex0549E,346.274,12122005,6:34:25,25.752,-77.23,366.53,-9,1012.2,1008.82,25.59,25.79,36.66,1.59,78.99,31.16,1012.2,101.8,22.4,272,12.35,355.91,2,-9,9,-9,0.13,16.92,328.68,22.76,228.72
AOML_Explorer,Ex0549E,346.276,12122005,6:36:58,25.748,-77.212,366.3,-9,1012.07,1008.97,25.59,25.76,36.67,1.6,79.13,31.16,1012.07,102.4,22.5,289,15.96,355.38,2,-9,9,-9,0.13,16.86,347.62,22.59,228.75
AOML_Explorer,Ex0549E,346.277,12122005,6:39:31,25.745,-77.195,367.22,-9,1012.34,1009.29,25.59,25.75,36.66,1.62,79.89,31.15,1012.34,102.2,22.2,281,13.9,356.21,2,-9,9,-9,0.13,16.63,337.92,22.28,228.92
AOML_Explorer,Ex0549E,346.279,12122005,6:42:04,25.741,-77.178,367.92,-9,1012.33,1009.17,25.56,25.76,36.66,1.6,79.37,31.16,1012.33,103.5,22.2,279,15.96,357.44,2,-9,9,-9,0.14,18.66,341.81,22.1,228.79
AOML_Explorer,Ex0549E,346.281,12122005,6:44:37,25.738,-77.161,366.88,-9,1012.47,1009.34,25.56,25.76,36.66,1.58,79.64,31.16,1012.47,102.9,22.3,279,13.38,356.49,2,-9,9,-9,0.14,16.69,335.77,22.09,228.75
AOML_Explorer,Ex0549E,346.283,12122005,6:47:10,25.734,-77.144,365.79,-9,1012.39,1009.21,25.57,25.77,36.66,1.59,79.68,31.16,1012.39,103.3,22.3,271,12.87,355.29,2,-9,9,-9,0.15,17.61,330.18,22.05,228.69
AOML_Explorer,Ex0549E,346.285,12122005,6:49:43,25.731,-77.127,365.58,-9,1012.11,1008.77,25.57,25.77,36.66,1.58,79.83,31.15,1012.11,103,22.4,277,13.9,354.96,2,-9,9,-9,0.15,17.42,335.72,22.11,228.48
AOML_Explorer,Ex0549E,346.286,12122005,6:52:16,25.727,-77.11,365.81,-9,1012.16,1008.82,25.58,25.76,36.67,1.58,79.73,31.16,1012.16,101.8,22.5,279,14.41,355.1,2,-9,9,-9,0.12,17.61,336.35,22.1,228.5
AOML_Explorer,Ex0549E,346.288,12122005,6:54:49,25.725,-77.093,366.04,-9,1011.88,1008.35,25.58,25.74,36.67,1.57,80.01,31.16,1011.88,96.9,22.5,277,16.47,354.98,2,-9,9,-9,0.12,19.69,333.66,22.04,228.55
AOML_Explorer,Ex0549E,346.29,12122005,6:57:22,25.724,-77.075,367.56,-9,1011.8,1008.11,25.56,25.71,36.68,1.59,79.43,31.16,1011.8,93.3,22.4,285,19.04,356.21,2,-9,9,-9,0.12,20.22,340.59,22.2,228.69
AOML_Explorer,Ex0549E,346.292,12122005,6:59:55,25.723,-77.058,369.14,-9,1011.65,1008.38,25.55,25.76,36.65,1.58,79.47,31.16,1011.65,92.3,22.5,279,15.96,358.53,2,-9,9,-9,0.12,18.64,330.58,22.19,228.95
AOML_Explorer,Ex0549E,346.314,12122005,7:31:52,25.71,-76.837,369.25,-9,1011.84,1008.43,25.65,25.73,36.63,1.61,79.8,31.22,1011.84,95.3,23,279,15.96,356.86,2,-9,9,-9,0.13,18.69,333.25,22.59,228.11
AOML_Explorer,Ex0549E,346.316,12122005,7:34:25,25.709,-76.82,370.19,-9,1011.92,1009,25.57,25.78,36.63,1.61,79.59,31.22,1011.92,94.7,23,284,13.38,359.66,2,-9,9,-9,0.13,15.86,330.21,22.59,227.99
AOML_Explorer,Ex0549E,346.317,12122005,7:36:58,25.708,-76.802,370.8,-9,1011.84,1008.29,25.56,25.82,36.64,1.58,79.45,31.21,1011.84,95.2,22.9,280,16.47,360.93,2,-9,9,-9,0.15,18.88,334.88,22.91,228.21
AOML_Explorer,Ex0549E,346.319,12122005,7:39:31,25.706,-76.784,371.17,-9,1011.75,1008.66,25.59,25.87,36.66,1.59,79.26,31.21,1011.75,95.7,22.9,289,18.01,361.27,2,-9,9,-9,0.15,18.46,344.72,22.74,227.8
AOML_Explorer,Ex0549E,346.321,12122005,7:42:04,25.705,-76.766,371.04,-9,1011.77,1008.65,25.64,25.85,36.69,1.62,79.42,31.21,1011.77,95,22.9,283,16.47,360.35,2,-9,9,-9,0.12,18.37,336.74,22.83,227.65
AOML_Explorer,Ex0549E,346.323,12122005,7:44:37,25.703,-76.748,371.46,-9,1011.9,1008.8,25.67,25.84,36.66,1.59,79.49,31.21,1011.9,95.3,22.8,284,13.9,360.22,2,-9,9,-9,0.11,16.25,332.04,22.74,228.44
AOML_Explorer,Ex0549E,346.324,12122005,7:47:10,25.702,-76.731,371.18,-9,1011.81,1008.61,25.64,25.87,36.66,1.6,79.71,31.21,1011.81,95.9,22.8,285,16.47,360.68,2,-9,9,-9,0.1,18.08,338.78,22.75,228.88
AOML_Explorer,Ex0549E,346.326,12122005,7:49:43,25.7,-76.713,367.75,-9,1011.82,1008.93,25.65,25.86,36.66,1.58,78.79,31.21,1011.82,95.7,22.7,284,14.93,357.11,2,-9,9,-9,0.11,17.04,334.7,22.85,229.1
AOML_Explorer,Ex0549E,346.328,12122005,7:52:16,25.699,-76.695,364.85,-9,1011.78,1008.59,25.67,25.87,36.65,1.6,78.68,31.2,1011.78,95.8,22.7,283,14.41,354.19,2,-9,9,-9,0.1,16.87,333.01,22.97,229
AOML_Explorer,Ex0549E,346.33,12122005,7:54:49,25.697,-76.678,363.03,-9,1011.79,1008.7,25.66,25.92,36.64,1.61,79.12,31.2,1011.79,95.6,22.6,282,14.41,353.1,2,-9,9,-9,0.1,17.03,332.39,23.1,229.26
AOML_Explorer,Ex0549E,346.332,12122005,7:57:22,25.695,-76.66,362.07,-9,1011.82,1008.66,25.68,25.94,36.65,1.61,79.08,31.2,1011.82,95.9,22.5,281,14.93,352.2,2,-9,9,-9,0.09,17.57,333.17,23.09,229.24
AOML_Explorer,Ex0549E,346.333,12122005,7:59:55,25.694,-76.643,360.78,-9,1011.85,1008.75,25.72,25.96,36.64,1.59,78.67,31.19,1011.85,95.8,22.3,283,15.44,350.7,2,-9,9,-9,0.1,17.53,336.01,23.11,229.34
AOML_Explorer,Ex0549E,346.348,12122005,8:21:40,25.679,-76.494,359.78,-9,1011.61,1008.24,25.77,25.97,36.69,1.6,78.67,31.24,1011.61,96.6,22.4,280,14.41,349.12,2,-9,9,-9,0.08,17.24,332.56,23.36,229.51
AOML_Explorer,Ex0549E,346.35,12122005,8:24:13,25.677,-76.477,360.32,-9,1011.63,1008.51,25.77,25.9,36.71,1.62,79.07,31.25,1011.63,96.8,22.4,273,14.41,348.62,2,-9,9,-9,0.07,18.44,328.22,23.19,229.66
AOML_Explorer,Ex0549E,346.352,12122005,8:26:46,25.675,-76.46,359.59,-9,1011.67,1008.63,25.75,25.8,36.7,1.58,78.69,31.25,1011.67,95.7,22.3,276,13.9,347.07,2,-9,9,-9,0.09,17.36,328.78,23.13,229.94
AOML_Explorer,Ex0549E,346.354,12122005,8:29:19,25.674,-76.442,358.93,-9,1011.66,1008.49,25.67,25.85,36.66,1.61,79.38,31.25,1011.66,95.5,22.4,272,14.41,348.22,2,-9,9,-9,0.07,18.38,327.24,23.17,230.13
AOML_Explorer,Ex0549E,346.355,12122005,8:31:52,25.672,-76.425,358.7,-9,1011.62,1008.45,25.62,25.9,36.67,1.55,78.79,31.25,1011.62,98.5,22.5,274,13.9,349.22,2,-9,9,-9,0.08,17.61,330.6,23.23,230.13
AOML_Explorer,Ex0549E,346.357,12122005,8:34:25,25.669,-76.407,358.26,-9,1011.67,1008.7,25.68,25.83,36.71,1.59,78.29,31.25,1011.67,101.2,22.4,276,12.87,347.15,2,-9,9,-9,0.08,16.44,332.19,23.23,230.05
AOML_Explorer,Ex0549E,346.359,12122005,8:36:58,25.666,-76.39,357.96,-9,1011.7,1008.88,25.69,25.84,36.67,1.61,79.54,31.24,1011.7,104.2,22.2,273,11.84,346.84,2,-9,9,-9,0.07,16.19,331.16,23.21,230.26
AOML_Explorer,Ex0549E,346.361,12122005,8:39:31,25.662,-76.374,358.17,-9,1011.71,1009,25.62,25.8,36.71,1.59,79.25,31.24,1011.71,106.5,22.3,271,10.81,347.33,2,-9,9,-9,0.07,15.78,329.82,23.24,230.12
AOML_Explorer,Ex0549E,346.363,12122005,8:42:04,25.657,-76.357,357.78,-9,1011.78,1009.12,25.63,25.71,36.71,1.63,79.04,31.24,1011.78,108.3,22.2,276,10.29,345.8,2,-9,9,-9,0.09,14.63,332.86,23.2,230.34
AOML_Explorer,Ex0549E,346.364,12122005,8:44:37,25.651,-76.341,357.75,-9,1011.86,1009.04,25.58,25.73,36.68,1.61,78.94,31.24,1011.86,113.1,22.1,263,8.24,346.7,2,-9,9,-9,0.07,14.82,326.58,23.17,230.55
AOML_Explorer,Ex0549E,346.366,12122005,8:47:10,25.644,-76.326,357.62,-9,1011.87,1009.57,25.54,25.76,36.68,1.61,79.41,31.24,1011.87,120.9,21.9,275,5.66,347.55,2,-9,9,-9,0.07,12.1,328.64,23.25,230.54
AOML_Explorer,Ex0549E,346.368,12122005,8:49:43,25.635,-76.312,357.48,-9,1012,1009.46,25.55,25.8,36.66,1.61,79.4,31.23,1012,126.3,21.9,269,6.18,347.84,2,-9,9,-9,0.08,13,334.75,23.34,230.46
AOML_Explorer,Ex0549E,346.37,12122005,8:52:16,25.626,-76.298,357.34,-9,1011.99,1009.53,25.57,25.83,36.68,1.62,79.07,31.23,1011.99,125.9,21.9,262,6.18,347.79,2,-9,9,-9,0.07,13.65,332.48,23.25,230.33
AOML_Explorer,Ex0549E,346.371,12122005,8:54:49,25.617,-76.284,357.15,-9,1011.92,1009.62,25.61,25.82,36.7,1.6,79.24,31.23,1011.92,125.5,22,269,6.69,346.98,2,-9,9,-9,0.07,13.31,335.77,23.36,230.38
AOML_Explorer,Ex0549E,346.373,12122005,8:57:22,25.608,-76.27,357.07,-9,1012.05,1009.75,25.62,25.78,36.69,1.62,78.75,31.23,1012.05,125.2,22.1,271,6.18,346.21,2,-9,9,-9,0.07,12.87,333.98,23.29,230.56
AOML_Explorer,Ex0549E,346.375,12122005,8:59:55,25.599,-76.256,357.15,-9,1011.99,1009.6,25.6,25.73,36.7,1.61,79.05,31.22,1011.99,125.7,22,261,6.18,345.9,2,-9,9,-9,0.08,13.8,331.85,23.33,230.64
AOML_Explorer,Ex0549E,346.394,12122005,9:26:46,25.504,-76.109,356.74,-9,1012.09,1009.78,25.68,25.87,36.68,1.6,79.2,31.28,1012.09,125.2,21.9,264,6.18,346.31,2,-9,9,-9,0.07,13.53,332.11,23.48,230.56
AOML_Explorer,Ex0549E,346.395,12122005,9:29:19,25.496,-76.095,356.97,-9,1012.13,1009.63,25.66,25.86,36.69,1.62,79.5,31.28,1012.13,125.7,21.9,270,6.18,346.6,2,-9,9,-9,0.06,13,333.76,23.44,230.62
AOML_Explorer,Ex0549E,346.397,12122005,9:31:52,25.487,-76.081,357.2,-9,1012.14,1009.83,25.66,25.86,36.68,1.62,78.93,31.27,1012.14,125.1,21.9,269,7.21,346.94,2,-9,9,-9,0.07,13.59,337.01,23.42,230.76
AOML_Explorer,Ex0549E,346.399,12122005,9:34:25,25.478,-76.067,357.5,-9,1012.02,1009.44,25.65,25.85,36.69,1.6,79.39,31.27,1012.02,124.8,22,268,7.72,347.16,2,-9,9,-9,0.06,14.07,338.12,23.54,230.63
AOML_Explorer,Ex0549E,346.401,12122005,9:36:58,25.469,-76.053,357.63,-9,1012.08,1009.7,25.65,25.73,36.74,1.63,79.33,31.27,1012.08,124.5,22.1,270,8.75,345.72,2,-9,9,-9,0.06,14.44,341.71,23.52,230.74
AOML_Explorer,Ex0549E,346.402,12122005,9:39:31,25.46,-76.039,357.76,-9,1012.14,1009.51,25.63,25.67,36.67,1.61,78.63,31.26,1012.14,124.9,21.7,271,9.26,345.35,2,-9,9,-9,0.07,14.48,344.57,23.61,230.99
AOML_Explorer,Ex0549E,346.404,12122005,9:42:04,25.451,-76.026,357.87,-9,1012.09,1009.53,25.51,25.67,36.67,1.61,78.64,31.26,1012.09,124.5,21.8,263,8.24,347.08,2,-9,9,-9,0.07,14.79,337.99,23.59,231.12
AOML_Explorer,Ex0549E,346.406,12122005,9:44:37,25.442,-76.012,357.48,-9,1012.09,1009.38,25.48,25.69,36.66,1.61,79,31.26,1012.09,125.6,21.8,273,9.26,347.31,2,-9,9,-9,0.06,14.4,345.53,23.6,231.09
AOML_Explorer,Ex0549E,346.408,12122005,9:47:10,25.433,-75.998,357.12,-9,1012.19,1009.23,25.49,25.72,36.66,1.62,79.59,31.26,1012.19,125.6,21.7,273,10.29,347.36,2,-9,9,-9,0.06,15.06,348.71,23.57,231.09
AOML_Explorer,Ex0549E,346.41,12122005,9:49:43,25.425,-75.984,356.95,-9,1011.92,1009.15,25.5,25.87,36.64,1.61,79.41,31.26,1011.92,125.4,21.7,269,9.26,348.82,2,-9,9,-9,0.07,14.79,344.15,23.61,230.91
AOML_Explorer,Ex0549E,346.411,12122005,9:52:16,25.416,-75.97,356.85,-9,1011.82,1009.31,25.56,25.94,36.67,1.61,79.07,31.26,1011.82,125.2,22.3,275,11.32,348.78,2,-9,9,-9,0.07,15.6,351.72,23.56,230.85
AOML_Explorer,Ex0549E,346.413,12122005,9:54:49,25.406,-75.956,356.86,-9,1011.89,1009.2,25.66,25.97,36.68,1.58,78.82,31.26,1011.89,124.8,22.7,272,9.26,347.83,2,-9,9,-9,0.07,14.81,343.42,23.56,230.52
AOML_Explorer,Ex0549E,346.415,12122005,9:57:22,25.397,-75.941,357.09,-9,1011.98,1009.13,25.72,25.97,36.69,1.6,79.12,31.26,1011.98,124.9,23,270,10.29,347.25,2,-9,9,-9,0.07,15.91,345.3,23.68,230.35
AOML_Explorer,Ex0549E,346.417,12122005,9:59:55,25.388,-75.927,357.18,-9,1012.3,1009.2,25.75,25.95,36.69,1.6,78.91,31.25,1012.3,125.2,22.9,269,12.35,346.93,2,-9,9,-9,0.07,17.54,349.99,23.6,230.31
AOML_Explorer,Ex0549E,346.432,12122005,10:21:40,25.308,-75.802,356.63,-9,1012.4,1009.33,25.56,25.65,36.62,1.57,79.21,31.3,1012.4,125.3,23.1,279,10.29,345.07,2,-9,9,-9,0.06,14.77,349.08,23.6,231.16
AOML_Explorer,Ex0549E,346.433,12122005,10:24:13,25.298,-75.787,357.05,-9,1012.18,1009.23,25.53,25.63,36.6,1.59,78.67,31.3,1012.18,124.7,23.1,276,11.32,345.51,2,-9,9,-9,0.06,15.87,350.11,23.61,231.1
AOML_Explorer,Ex0549E,346.435,12122005,10:26:46,25.289,-75.772,356.89,-9,1012.66,1009.06,25.46,25.61,36.64,1.57,79.27,31.3,1012.66,124.9,23,278,11.84,346.24,2,-9,9,-9,0.06,15.88,352.77,23.66,231.18
AOML_Explorer,Ex0549E,346.437,12122005,10:29:19,25.28,-75.757,356.87,-9,1012.16,1008.78,25.45,25.6,36.62,1.58,78.88,31.29,1012.16,124.9,23.1,283,13.9,346.15,2,-9,9,-9,0.07,16.51,0.68,23.57,231.23
AOML_Explorer,Ex0549E,346.439,12122005,10:31:52,25.27,-75.743,357.28,-9,1012.22,1008.94,25.42,25.61,36.62,1.6,79.18,31.29,1012.22,125.2,22.9,280,11.84,346.95,2,-9,9,-9,0.07,15.49,354.37,23.52,231.25
AOML_Explorer,Ex0549E,346.441,12122005,10:34:25,25.261,-75.728,357.36,-9,1012.14,1008.76,25.42,25.6,36.62,1.57,79.07,31.29,1012.14,125.1,22.9,275,14.93,347,2,-9,9,-9,0.07,18.6,358.41,23.42,231.21
AOML_Explorer,Ex0549E,346.442,12122005,10:36:58,25.251,-75.714,357.19,-9,1012.06,1008.74,25.42,25.59,36.62,1.59,78.8,31.29,1012.06,125.8,23.1,280,11.32,346.56,2,-9,9,-9,0.06,15.31,353.1,23.44,231.15
AOML_Explorer,Ex0549E,346.444,12122005,10:39:31,25.242,-75.699,356.96,-9,1012.24,1008.94,25.41,25.61,36.6,1.55,78.81,31.29,1012.24,125.9,23,270,12.35,346.77,2,-9,9,-9,0.06,17.58,350.35,23.34,231.07
AOML_Explorer,Ex0549E,346.446,12122005,10:42:04,25.233,-75.684,356.64,-9,1012.19,1008.61,25.41,25.63,36.62,1.59,78.94,31.28,1012.19,125.8,23.1,268,13.38,346.72,2,-9,9,-9,0.06,18.65,351.35,23.39,231.21
AOML_Explorer,Ex0549E,346.448,12122005,10:44:37,25.223,-75.67,356.47,-9,1012.23,1009.08,25.43,25.62,36.61,1.56,78.77,31.25,1012.23,125.1,23.1,269,12.35,346.24,2,-9,9,-9,0.06,17.67,349.14,23.43,231.15
AOML_Explorer,Ex0549E,346.449,12122005,10:47:10,25.214,-75.655,356.45,-9,1012.26,1008.91,25.44,25.63,36.6,1.53,79.2,31.24,1012.26,125.2,23.2,273,12.35,346.16,2,-9,9,-9,0.06,17.15,351.47,23.49,231.01
AOML_Explorer,Ex0549E,346.451,12122005,10:49:43,25.204,-75.64,356.53,-9,1012.34,1009.29,25.44,25.66,36.61,1.53,79.32,31.24,1012.34,125.3,23.1,275,11.32,346.75,2,-9,9,-9,0.07,16.09,349.9,23.67,231.18
AOML_Explorer,Ex0549E,346.453,12122005,10:52:16,25.195,-75.625,356.72,-9,1012.35,1009.14,25.45,25.62,36.62,1.58,79.09,31.24,1012.35,125.8,23.1,269,12.35,346.16,2,-9,9,-9,0.06,17.72,349.68,23.7,231.13
AOML_Explorer,Ex0549E,346.455,12122005,10:54:49,25.186,-75.611,356.87,-9,1012.37,1009.06,25.46,25.59,36.62,1.57,78.84,31.24,1012.37,125,23.2,269,11.32,345.94,2,-9,9,-9,0.06,16.98,346.82,23.77,231.08
AOML_Explorer,Ex0549E,346.457,12122005,10:57:22,25.176,-75.596,356.87,-9,1012.47,1009.31,25.42,25.65,36.6,1.58,79.92,31.23,1012.47,125.1,23.5,272,10.29,347.25,2,-9,9,-9,0.06,15.79,345.59,23.77,231.13
AOML_Explorer,Ex0549E,346.458,12122005,10:59:55,25.167,-75.581,356.41,-9,1012.49,1009.28,25.42,25.7,36.62,1.56,79.35,31.23,1012.49,125.4,23.4,281,10.29,347.46,2,-9,9,-9,0.06,14.54,349.73,23.96,231.14
AOML_Explorer,Ex0549E,346.473,12122005,11:21:40,25.086,-75.454,356.73,-9,1012.52,1009.65,25.67,25.89,36.65,1.57,79.37,31.28,1012.52,125.2,23.3,297,10.81,346.74,2,-9,9,-9,0.06,12.28,358.06,24.26,230.75
AOML_Explorer,Ex0549E,346.475,12122005,11:24:13,25.076,-75.44,357.43,-9,1012.67,1009.84,25.67,25.86,36.65,1.62,79.29,31.28,1012.67,124.4,23.3,298,11.84,347.08,2,-9,9,-9,0.06,12.57,1.88,24.29,230.7
AOML_Explorer,Ex0549E,346.477,12122005,11:26:46,25.067,-75.425,357.6,-9,1012.7,1010.01,25.66,25.83,36.65,1.58,78.78,31.28,1012.7,124.8,23.1,305,11.32,347.06,2,-9,9,-9,0.06,11.12,3.66,24.3,230.82
AOML_Explorer,Ex0549E,346.479,12122005,11:29:19,25.057,-75.41,357.69,-9,1012.83,1010.02,25.64,25.83,36.65,1.6,79.47,31.28,1012.83,124.7,23.1,312,9.78,347.48,2,-9,9,-9,0.06,9.3,358.3,24.21,230.89
AOML_Explorer,Ex0549E,346.48,12122005,11:31:52,25.048,-75.396,357.62,-9,1012.73,1010.01,25.62,25.84,36.65,1.6,79.21,31.27,1012.73,125,23.1,308,11.32,347.76,2,-9,9,-9,0.07,10.58,5.29,24.19,230.92
AOML_Explorer,Ex0549E,346.482,12122005,11:34:25,25.038,-75.381,357.56,-9,1012.82,1010.07,25.62,25.84,36.64,1.6,79.49,31.27,1012.82,125.2,23.1,309,10.29,347.69,2,-9,9,-9,0.07,9.99,0.51,24.15,230.93
AOML_Explorer,Ex0549E,346.484,12122005,11:36:58,25.029,-75.366,357.56,-9,1012.98,1010.28,25.62,25.84,36.65,1.62,79.47,31.26,1012.98,124.8,23,313,9.78,347.77,2,-9,9,-9,0.08,9.13,358.53,24.13,230.93
AOML_Explorer,Ex0549E,346.486,12122005,11:39:31,25.02,-75.352,357.79,-9,1012.88,1010.2,25.63,25.86,36.64,1.59,78.79,31.25,1012.88,125.3,23,309,10.29,348.07,2,-9,9,-9,0.07,10.01,0.86,24.2,230.82
AOML_Explorer,Ex0549E,346.488,12122005,11:42:04,25.01,-75.337,357.89,-9,1012.83,1010.3,25.63,25.86,36.65,1.59,79.49,31.25,1012.83,125.2,23,309,9.26,348.22,2,-9,9,-9,0.07,9.63,355.04,24.19,230.74
AOML_Explorer,Ex0549E,346.489,12122005,11:44:37,25.001,-75.323,357.8,-9,1012.81,1010.04,25.65,25.84,36.65,1.61,79.28,31.24,1012.81,125.3,23,307,9.78,347.51,2,-9,9,-9,0.07,10.12,357.47,24.16,230.89
AOML_Explorer,Ex0549E,346.491,12122005,11:47:10,24.992,-75.308,357.82,-9,1012.95,1010.26,25.65,25.8,36.66,1.6,79.47,31.23,1012.95,125.5,23,311,10.29,347.25,2,-9,9,-9,0.07,9.62,1.7,24.2,230.64
AOML_Explorer,Ex0549E,346.493,12122005,11:49:43,24.982,-75.293,357.83,-9,1013.04,1010.27,25.62,25.79,36.64,1.61,79.06,31.23,1013.04,125.2,22.9,306,9.26,347.38,2,-9,9,-9,0.07,10.1,354.45,24.1,230.78
AOML_Explorer,Ex0549E,346.495,12122005,11:52:16,24.973,-75.279,357.59,-9,1013.04,1010.57,25.59,25.81,36.64,1.61,78.7,31.22,1013.04,125.6,22.9,317,8.75,347.82,2,-9,9,-9,0.07,8.37,353.35,24.07,230.77
AOML_Explorer,Ex0549E,346.496,12122005,11:54:49,24.964,-75.264,357.21,-9,1013.09,1010.47,25.59,25.82,36.65,1.6,78.9,31.21,1013.09,124.7,22.9,310,9.26,347.65,2,-9,9,-9,0.07,9.4,354.84,24.13,230.76